This demonstration page uses our WeatherBlox Daily Observations layout. Learn more.

Left ArrowRight Arrow

47.50024, -111.30081

Hourly Observations for April 6, 2019

Temp ( °F °C ) Dew Point ( °F °C ) Humidity (%) Winds ( mph kmh ) Pressure ( in mb ) Visibility ( mi km ) Precip ( " mm )
12:53 am 00:53 Clear 39 3.9 36 2.2 89 89 SW 8 13 29.74 1007 10 16 0.00 0.00
1:53 am 01:53 Clear 39 3.9 36 2.2 89 89 S 8 13 29.72 1007 10 16 0.00 0.00
2:53 am 02:53 Clear 43 6.1 38 3.3 82 82 SSW 14 22 29.68 1005 10 16 0.00 0.00
3:53 am 03:53 Clear 43 6.1 37 2.8 80 80 SSW 14 22 29.67 1005 10 16 0.00 0.00
4:53 am 04:53 Clear 44 6.7 37 2.8 76 76 S 14 22 29.67 1005 10 16 0.00 0.00
5:53 am 05:53 Clear 43 6.1 37 2.8 80 80 SW 9 15 29.69 1006 10 16 0.00 0.00
6:53 am 06:53 Partly Cloudy 46 7.8 37 2.8 71 71 SW 20 31 29.71 1006 10 16 0.00 0.00
7:53 am 07:53 Cloudy 45 7.2 35 1.7 68 68 SW 13 20 29.72 1006 10 16 0.00 0.00
8:53 am 08:53 Sunny 48 8.9 35 1.7 61 61 SW 16 26 29.74 1007 10 16 0.00 0.00
9:53 am 09:53 Sunny 51 10.6 28 -2.2 41 41 SW 22 35 29.74 1007 10 16 0.00 0.00
10:53 am 10:53 Sunny 53 11.7 22 -5.6 30 30 WSW 24 39 29.74 1007 10 16 0.00 0.00
11:53 am 11:53 Sunny 53 11.7 23 -5 31 31 SW 30 48 29.74 1007 10 16 0.00 0.00
12:53 pm 12:53 Sunny 51 10.6 21 -6.1 31 31 WSW 26 43 29.77 1008 10 16 0.00 0.00
1:53 pm 13:53 Mostly Sunny 50 10 19 -7.2 29 29 WSW 28 44 29.78 1009 10 16 0.00 0.00
2:53 pm 14:53 Cloudy 52 11.1 22 -5.6 31 31 WSW 25 41 29.78 1009 10 16 0.00 0.00
3:53 pm 15:53 Mostly Cloudy 49 9.4 24 -4.4 38 38 SW 26 43 29.80 1009 10 16 0.00 0.00
4:53 pm 16:53 Sunny 49 9.4 26 -3.3 41 41 SW 26 43 29.78 1009 10 16 0.00 0.00
5:53 pm 17:53 Sunny 50 10 26 -3.3 39 39 SW 20 31 29.80 1009 10 16 0.00 0.00
6:53 pm 18:53 Mostly Sunny 51 10.6 25 -3.9 36 36 WSW 30 48 29.79 1009 10 16 0.00 0.00
7:53 pm 19:53 Sunny 47 8.3 27 -2.8 46 46 WSW 23 37 29.83 1010 10 16 0.00 0.00
8:53 pm 20:53 Clear 45 7.2 27 -2.8 49 49 SW 24 39 29.84 1010 10 16 0.00 0.00
9:53 pm 21:53 Clear 42 5.6 29 -1.7 60 60 WSW 14 22 29.87 1012 10 16 0.00 0.00
10:53 pm 22:53 Clear 40 4.4 29 -1.7 65 65 SW 18 30 29.87 1012 10 16 0.00 0.00
11:53 pm 23:53 Clear 40 4.4 29 -1.7 65 65 SW 15 24 29.89 1012 10 16 0.00 0.00

Powered by AerisWeather